Home   Weather   Reynosa   Past weeks
Flag for Mexico

Past Weather in Reynosa, Tamaulipas, Mexico — Yesterday and Last 2 Weeks

Now
97 °F

Sunny.


Feels Like: 101 °F
Forecast: N/A
Wind: 15 mph from Southeast

Location: Miller International Airport

Current Time: Oct 14, 2019 at 4:11:57 pm

Latest Report: Oct 14, 2019 at 3:02 pm


Visibility: 10 mi

Pressure: 29.88 "Hg

Humidity: 36%

Dew Point: 66 °F

Location of ReynosaLocation

Past Weather in Reynosa — Graph

°F

Reynosa Temperature Yesterday

Maximum temperature yesterday: 82 °F (at 5:38 pm)
Minimum temperature yesterday: 68 °F (at 11:53 am)
Average temperature yesterday: 74 °F

High & Low Weather Summary for the Past Weeks

 TemperatureHumidityPressure
High99 °F (Oct 11, 2:13 pm)93% (Oct 14, 5:53 am)30.23 "Hg (Oct 14, 5:53 am)
Low59 °F (Oct 12, 12:53 am)26% (Oct 12, 1:53 pm)29.73 "Hg (Oct 10, 4:53 pm)
Average82 °F67%29.94 "Hg
* Reported Sep 29 2:53 pm — Oct 14 2:53 pm, Reynosa. Weather by CustomWeather, © 2019

Note: Actual official high and low records may vary slightly from our data, if they occured in-between our weather recording intervals... More about our weather records

Advertising

Reynosa Weather History for the Previous 24 Hours

Scroll right to see more
 ConditionsComfort  
Time TempWeatherWind HumidityBarometerVisibility
2:53 pm
Mon, Oct 14
96 °FSunny.14 mph37%29.87 "Hg10 mi
1:53 pm95 °FSunny.9 mph40%29.90 "Hg10 mi
12:53 pm92 °FSunny.7 mph44%29.93 "Hg10 mi
11:53 am90 °FSunny.6 mph48%29.96 "Hg10 mi
10:53 am85 °FSunny.3 mph57%29.97 "Hg10 mi
9:53 am80 °FSunny.3 mph67%29.97 "Hg10 mi
8:53 am76 °FSunny.No wind80%29.97 "Hg7 mi
7:53 am69 °FFog.No wind93%29.96 "Hg5 mi
7:01 am69 °FPassing clouds.No wind90%29.96 "Hg8 mi
5:53 am69 °FPassing clouds.No wind93%29.95 "Hg8 mi
5:44 am69 °FPassing clouds.No wind90%29.95 "Hg7 mi
4:53 am69 °FClear.No wind90%29.93 "Hg8 mi
3:53 am71 °FClear.3 mph87%29.93 "Hg10 mi
2:53 am71 °FClear.No wind87%29.95 "Hg10 mi
1:53 am72 °FClear.No wind87%29.95 "Hg10 mi
12:53 am75 °FClear.3 mph82%29.95 "Hg10 mi
11:53 pm
Sun, Oct 13
74 °FClear.No wind85%29.96 "Hg10 mi
10:53 pm75 °FClear.5 mph82%29.96 "Hg10 mi
9:53 pm76 °FClear.6 mph80%29.96 "Hg10 mi
8:53 pm77 °FClear.7 mph71%29.94 "Hg10 mi
7:53 pm77 °FClear.3 mph66%29.92 "Hg10 mi
6:53 pm81 °FSunny.6 mph60%29.91 "Hg10 mi
5:53 pm82 °FSunny.5 mph55%29.90 "Hg10 mi
5:38 pm82 °FPassing clouds.6 mph55%29.91 "Hg10 mi
4:53 pm81 °FSunny.7 mph56%29.91 "Hg10 mi
Weather by CustomWeather, © 2019

See weather overview